,,PA_Meas_PMT16A,,PR_Meas_QMR101_102,,RH_Meas_QMH101,,SR_Meas_QMS101,,TA_Meas_QMH101,,GenWind,,GenWind,
time,status,PA,status,PR,status,RH,status,SR,status,TA,status,DirAvg,status,SpdAvg,
2010-02-07, 00:00:05,VALID,919.431,VALID,0,VALID,94.7514,VALID,0.107441,VALID,21.1023,VALID,143,VALID,0.996484,
2010-02-07, 00:01:05,VALID,919.442,VALID,0,VALID,94.7591,VALID,0,VALID,21.0454,VALID,143,VALID,0.614453,
2010-02-07, 00:02:05,VALID,919.441,VALID,0,VALID,94.6523,VALID,0.107441,VALID,21.0064,VALID,143,VALID,0.608984,
2010-02-07, 00:03:05,VALID,919.405,VALID,0,VALID,94.5837,VALID,0,VALID,21.0064,VALID,143,VALID,0.933984,
2010-02-07, 00:04:05,VALID,919.44,VALID,0,VALID,94.4694,VALID,0,VALID,21.0454,VALID,147,VALID,0.971875,
2010-02-07, 00:05:05,VALID,919.43,VALID,0,VALID,94.2026,VALID,0,VALID,21.0844,VALID,147,VALID,1.28164,
2010-02-07, 00:06:05,VALID,919.464,VALID,0,VALID,94.1644,VALID,0,VALID,21.125,VALID,144,VALID,1.07656,
2010-02-07, 00:07:05,VALID,919.478,VALID,0,VALID,94.1187,VALID,0,VALID,21.1234,VALID,152,VALID,1.18789,
2010-02-07, 00:08:05,VALID,919.5,VALID,0,VALID,93.9967,VALID,0,VALID,21.1429,VALID,152,VALID,0.830859,
2010-02-07, 00:09:05,VALID,919.509,VALID,0,VALID,93.8976,VALID,0,VALID,21.1429,VALID,152,VALID,0.498828,
2010-02-07, 00:10:05,VALID,919.483,VALID,0,VALID,93.8138,VALID,0,VALID,21.1429,VALID,152,VALID,0.678125,
2010-02-07, 00:11:05,VALID,919.484,VALID,0,VALID,93.9205,VALID,0,VALID,21.1819,VALID,152,VALID,0.857813,
2010-02-07, 00:12:05,VALID,919.464,VALID,0,VALID,93.8595,VALID,0,VALID,21.1819,VALID,121,VALID,0.946484,
2010-02-07, 00:13:05,VALID,919.426,VALID,0,VALID,93.7909,VALID,0,VALID,21.221,VALID,147,VALID,1.09805,
2010-02-07, 00:14:05,VALID,919.45,VALID,0,VALID,93.6613,VALID,0,VALID,21.2015,VALID,163,VALID,1.00977,
2010-02-07, 00:15:05,VALID,919.407,VALID,0,VALID,93.6155,VALID,0,VALID,21.2405,VALID,175,VALID,1.19727,
2010-02-07, 00:16:05,VALID,919.416,VALID,0,VALID,93.5698,VALID,0,VALID,21.26,VALID,173,VALID,1.03516,
2010-02-07, 00:17:05,VALID,919.429,VALID,0,VALID,93.4783,VALID,0,VALID,21.2795,VALID,143,VALID,0.991406,
2010-02-07, 00:18:05,VALID,919.421,VALID,0,VALID,93.3868,VALID,0,VALID,21.299,VALID,198,VALID,0.922266,
2010-02-07, 00:19:05,VALID,919.424,VALID,0,VALID,93.303,VALID,0,VALID,21.3185,VALID,198,VALID,0.575391,
2010-02-07, 00:20:05,VALID,919.401,VALID,0,VALID,93.3716,VALID,0,VALID,21.3185,VALID,198,VALID,1.01875,
2010-02-07, 00:21:05,VALID,919.388,VALID,0,VALID,93.4326,VALID,0,VALID,21.299,VALID,178,VALID,1.0543,
2010-02-07, 00:22:05,VALID,919.403,VALID,0,VALID,93.4859,VALID,0,VALID,21.2795,VALID,158,VALID,1.20898,
2010-02-07, 00:23:05,VALID,919.379,VALID,0,VALID,93.6765,VALID,0,VALID,21.26,VALID,161,VALID,1.37109,
2010-02-07, 00:24:05,VALID,919.399,VALID,0,VALID,93.768,VALID,0,VALID,21.2405,VALID,153,VALID,1.49609,
2010-02-07, 00:25:05,VALID,919.347,VALID,0,VALID,93.9129,VALID,0,VALID,21.221,VALID,172,VALID,1.39023,
2010-02-07, 00:26:05,VALID,919.395,VALID,0,VALID,93.8366,VALID,0,VALID,21.2015,VALID,149,VALID,1.64219,
2010-02-07, 00:27:05,VALID,919.379,VALID,0,VALID,93.7833,VALID,0,VALID,21.1608,VALID,140,VALID,1.58906,
2010-02-07, 00:28:05,VALID,919.399,VALID,0,VALID,93.6765,VALID,0,VALID,21.1819,VALID,134,VALID,1.19531,
2010-02-07, 00:29:05,VALID,919.429,VALID,0,VALID,93.6232,VALID,0,VALID,21.1819,VALID,121,VALID,0.944141,
2010-02-07, 00:30:05,VALID,919.416,VALID,0,VALID,93.5622,VALID,0,VALID,21.1819,VALID,105,VALID,1.20703,
2010-02-07, 00:31:05,VALID,919.406,VALID,0,VALID,93.4859,VALID,0,VALID,21.1624,VALID,98,VALID,1.42773,
2010-02-07, 00:32:05,VALID,919.406,VALID,0,VALID,93.4707,VALID,0,VALID,21.1819,VALID,131,VALID,2.21602,
2010-02-07, 00:33:05,VALID,919.385,VALID,0,VALID,93.303,VALID,0,VALID,21.1819,VALID,123,VALID,1.73906,
2010-02-07, 00:34:05,VALID,919.352,VALID,0,VALID,93.2801,VALID,0,VALID,21.2015,VALID,132,VALID,1.47422,
2010-02-07, 00:35:05,VALID,919.37,VALID,0,VALID,93.2649,VALID,0,VALID,21.2015,VALID,140,VALID,1.51289,
2010-02-07, 00:36:05,VALID,919.343,VALID,0,VALID,93.2496,VALID,0,VALID,21.2015,VALID,138,VALID,1.57578,
2010-02-07, 00:37:05,VALID,919.321,VALID,0,VALID,93.1505,VALID,0,VALID,21.221,VALID,130,VALID,1.92344,
2010-02-07, 00:38:05,VALID,919.293,VALID,0,VALID,93.0057,VALID,0,VALID,21.2015,VALID,127,VALID,1.26758,
2010-02-07, 00:39:05,VALID,919.281,VALID,0,VALID,92.9828,VALID,0,VALID,21.2405,VALID,150,VALID,1.46094,
2010-02-07, 00:40:05,VALID,919.26,VALID,0,VALID,92.8837,VALID,0,VALID,21.2795,VALID,148,VALID,1.51641,
2010-02-07, 00:41:05,VALID,919.24,VALID,0,VALID,92.8151,VALID,0,VALID,21.2795,VALID,113,VALID,1.05,
2010-02-07, 00:42:05,VALID,919.228,VALID,0,VALID,92.7312,VALID,0,VALID,21.2795,VALID,161,VALID,0.699609,
2010-02-07, 00:43:05,VALID,919.219,VALID,0,VALID,92.8913,VALID,0,VALID,21.2405,VALID,141,VALID,1.3,
2010-02-07, 00:44:05,VALID,919.175,VALID,0,VALID,93.0362,VALID,0,VALID,21.221,VALID,142,VALID,1.63633,
2010-02-07, 00:45:05,VALID,919.182,VALID,0,VALID,93.0362,VALID,0,VALID,21.1998,VALID,127,VALID,1.75273,
2010-02-07, 00:46:05,VALID,919.201,VALID,0,VALID,92.9904,VALID,0,VALID,21.2015,VALID,130,VALID,1.38281,
2010-02-07, 00:47:05,VALID,919.187,VALID,0,VALID,93.0209,VALID,0,VALID,21.2015,VALID,106,VALID,1.53281,
2010-02-07, 00:48:05,VALID,919.182,VALID,0,VALID,92.9371,VALID,0,VALID,21.1819,VALID,100,VALID,1.03594,
2010-02-07, 00:49:05,VALID,919.2,VALID,0,VALID,92.9676,VALID,0,VALID,21.2015,VALID,112,VALID,0.75625,
2010-02-07, 00:50:05,VALID,919.19,VALID,0,VALID,92.8303,VALID,0,VALID,21.1819,VALID,108,VALID,1.08555,
2010-02-07, 00:51:05,VALID,919.205,VALID,0,VALID,92.9371,VALID,0,VALID,21.2015,VALID,108,VALID,0.971094,
2010-02-07, 00:52:05,VALID,919.189,VALID,0,VALID,92.8151,VALID,0,VALID,21.1836,VALID,108,VALID,0.978516,
2010-02-07, 00:53:05,VALID,919.183,VALID,0,VALID,93.12,VALID,0,VALID,21.1039,VALID,108,VALID,0.996875,
2010-02-07, 00:54:05,VALID,919.188,VALID,0,VALID,93.3564,VALID,0,VALID,21.1039,VALID,108,VALID,1.13984,
2010-02-07, 00:55:05,VALID,919.159,VALID,0,VALID,93.1963,VALID,0,VALID,21.0844,VALID,108,VALID,0.767187,
2010-02-07, 00:56:05,VALID,919.121,VALID,0,VALID,93.3259,VALID,0,VALID,21.0844,VALID,108,VALID,0.990625,
2010-02-07, 00:57:05,VALID,919.108,VALID,0,VALID,93.5393,VALID,0,VALID,21.0844,VALID,117,VALID,1.39961,
2010-02-07, 00:58:05,VALID,919.076,VALID,0,VALID,93.3182,VALID,0,VALID,21.1234,VALID,129,VALID,1.20781,
2010-02-07, 00:59:05,VALID,919.066,VALID,0,VALID,93.181,VALID,0,VALID,21.1429,VALID,129,VALID,1.14531,
2010-02-07, 01:00:05,VALID,919.042,VALID,0,VALID,93.1581,VALID,0,VALID,21.1429,VALID,129,VALID,1.37148,
2010-02-07, 01:01:05,VALID,919.034,VALID,0,VALID,93.1124,VALID,0,VALID,21.1624,VALID,129,VALID,1.31055,
2010-02-07, 01:02:05,VALID,919.006,VALID,0,VALID,93.1429,VALID,0,VALID,21.1429,VALID,129,VALID,1.1918,
2010-02-07, 01:03:05,VALID,918.981,VALID,0,VALID,93.0438,VALID,0,VALID,21.1218,VALID,129,VALID,1.11641,
2010-02-07, 01:04:05,VALID,918.99,VALID,0,VALID,92.8761,VALID,0,VALID,21.1429,VALID,129,VALID,0.598437,
2010-02-07, 01:05:05,VALID,918.975,VALID,0,VALID,92.8989,VALID,0,VALID,21.1039,VALID,129,VALID,0.435156,
2010-02-07, 01:06:05,VALID,918.988,VALID,0,VALID,92.716,VALID,0,VALID,21.0454,VALID,129,VALID,0.598047,
2010-02-07, 01:07:05,VALID,918.957,VALID,0,VALID,93.2496,VALID,0,VALID,21.0064,VALID,129,VALID,0.598437,
2010-02-07, 01:08:05,VALID,918.965,VALID,0,VALID,93.6994,VALID,0,VALID,20.9674,VALID,129,VALID,0.708594,
2010-02-07, 01:09:05,VALID,918.95,VALID,0,VALID,93.6689,VALID,0,VALID,20.9674,VALID,129,VALID,0.852734,
2010-02-07, 01:10:05,VALID,918.967,VALID,0,VALID,93.4783,VALID,0,VALID,21.0064,VALID,129,VALID,0.723047,
2010-02-07, 01:11:05,VALID,918.944,VALID,0,VALID,93.3868,VALID,0,VALID,21.0259,VALID,129,VALID,0.932422,
2010-02-07, 01:12:05,VALID,918.981,VALID,0,VALID,93.2039,VALID,0,VALID,21.0048,VALID,129,VALID,0.856641,
2010-02-07, 01:13:05,VALID,918.962,VALID,0,VALID,93.0819,VALID,0,VALID,21.0048,VALID,129,VALID,0.664844,
2010-02-07, 01:14:05,VALID,918.975,VALID,0,VALID,93.1048,VALID,0,VALID,21.0064,VALID,129,VALID,0.701563,
2010-02-07, 01:15:05,VALID,918.95,VALID,0,VALID,93.1581,VALID,0,VALID,20.9674,VALID,129,VALID,0.963672,
2010-02-07, 01:16:05,VALID,918.963,VALID,0,VALID,93.2268,VALID,0,VALID,20.9284,VALID,129,VALID,0.397656,
2010-02-07, 01:17:05,VALID,918.988,VALID,0,VALID,93.1429,VALID,0,VALID,20.9089,VALID,129,VALID,0.0152344,
2010-02-07, 01:18:05,VALID,918.964,VALID,0,VALID,92.7922,VALID,0,VALID,20.8699,VALID,129,VALID,0.701953,
2010-02-07, 01:19:05,VALID,918.933,VALID,0,VALID,92.9218,VALID,0,VALID,20.8113,VALID,129,VALID,0.443359,
2010-02-07, 01:20:05,VALID,918.94,VALID,0,VALID,93.7147,VALID,0,VALID,20.7918,VALID,129,VALID,0.657031,
2010-02-07, 01:21:05,VALID,918.947,VALID,0,VALID,93.9891,VALID,0,VALID,20.7723,VALID,129,VALID,0.619531,
2010-02-07, 01:22:05,VALID,918.936,VALID,0,VALID,93.6308,VALID,0,VALID,20.7333,VALID,129,VALID,0.516016,
2010-02-07, 01:23:05,VALID,918.898,VALID,0,VALID,94.0501,VALID,0,VALID,20.6943,VALID,129,VALID,0.509766,
2010-02-07, 01:24:05,VALID,918.884,VALID,0,VALID,94.2102,VALID,0,VALID,20.6147,VALID,129,VALID,0.453125,
2010-02-07, 01:25:05,VALID,918.869,VALID,0,VALID,94.4922,VALID,0,VALID,20.5968,VALID,129,VALID,0.525391,
2010-02-07, 01:26:05,VALID,918.846,VALID,0,VALID,94.9649,VALID,0.107441,VALID,20.5968,VALID,129,VALID,0.36875,
2010-02-07, 01:27:05,VALID,918.822,VALID,0,VALID,95.2317,VALID,0,VALID,20.5968,VALID,129,VALID,0.210547,
2010-02-07, 01:28:05,VALID,918.786,VALID,0,VALID,95.3766,VALID,0,VALID,20.5952,VALID,129,VALID,0,
2010-02-07, 01:29:05,VALID,918.768,VALID,0,VALID,95.4223,VALID,0,VALID,20.6163,VALID,129,VALID,0,
2010-02-07, 01:30:05,VALID,918.756,VALID,0,VALID,95.2698,VALID,0,VALID,20.6374,VALID,129,VALID,0,
2010-02-07, 01:31:05,VALID,918.749,VALID,0,VALID,95.2317,VALID,0,VALID,20.6358,VALID,129,VALID,0,
2010-02-07, 01:32:05,VALID,918.701,VALID,0,VALID,95.064,VALID,0,VALID,20.6569,VALID,129,VALID,0.0140625,
2010-02-07, 01:33:05,VALID,918.65,VALID,0,VALID,94.7591,VALID,0,VALID,20.6163,VALID,129,VALID,0.197656,
2010-02-07, 01:34:05,VALID,918.634,VALID,0,VALID,94.881,VALID,0,VALID,20.6163,VALID,129,VALID,0.450781,
2010-02-07, 01:35:05,VALID,918.624,VALID,0,VALID,95.3003,VALID,0,VALID,20.6764,VALID,129,VALID,0.301172,
2010-02-07, 01:36:05,VALID,918.596,VALID,0,VALID,95.1021,VALID,0,VALID,20.6553,VALID,129,VALID,0.2,
2010-02-07, 01:37:05,VALID,918.58,VALID,0,VALID,95.2317,VALID,0,VALID,20.6943,VALID,129,VALID,0.477344,
2010-02-07, 01:38:05,VALID,918.562,VALID,0,VALID,95.2241,VALID,0,VALID,20.7528,VALID,129,VALID,0.655469,
2010-02-07, 01:39:05,VALID,918.542,VALID,0,VALID,94.4694,VALID,0,VALID,20.7528,VALID,129,VALID,0.6125,
2010-02-07, 01:40:05,VALID,918.557,VALID,0,VALID,94.5151,VALID,0,VALID,20.7934,VALID,129,VALID,0.785547,
2010-02-07, 01:41:05,VALID,918.547,VALID,0,VALID,94.6371,VALID,0,VALID,20.7528,VALID,129,VALID,0.920313,
2010-02-07, 01:42:05,VALID,918.532,VALID,0,VALID,94.0806,VALID,0,VALID,20.7154,VALID,129,VALID,0.669531,
2010-02-07, 01:43:05,VALID,918.541,VALID,0,VALID,94.3626,VALID,0,VALID,20.6748,VALID,129,VALID,0.647266,
2010-02-07, 01:44:04,VALID,918.521,VALID,0,VALID,94.1034,VALID,0,VALID,20.6163,VALID,129,VALID,0.604297,
2010-02-07, 01:45:04,VALID,918.461,VALID,0,VALID,93.8138,VALID,0,VALID,20.5383,VALID,129,VALID,0.468359,
2010-02-07, 01:46:04,VALID,918.478,VALID,0,VALID,94.3321,VALID,0.107441,VALID,20.5172,VALID,129,VALID,0.539063,
2010-02-07, 01:47:04,VALID,918.476,VALID,0,VALID,94.8505,VALID,0.107441,VALID,20.4798,VALID,129,VALID,0.546484,
2010-02-07, 01:48:04,VALID,918.447,VALID,0,VALID,95.2622,VALID,0.107441,VALID,20.4587,VALID,129,VALID,0.646875,
2010-02-07, 01:49:04,VALID,918.463,VALID,0,VALID,95.4604,VALID,0.107441,VALID,20.4603,VALID,129,VALID,0.623047,
2010-02-07, 01:50:04,VALID,918.427,VALID,0,VALID,95.6205,VALID,0,VALID,20.4408,VALID,129,VALID,0.741797,
2010-02-07, 01:51:04,VALID,918.441,VALID,0,VALID,95.6967,VALID,0,VALID,20.4408,VALID,129,VALID,0.689453,
2010-02-07, 01:52:04,VALID,918.462,VALID,0,VALID,95.8568,VALID,0.107441,VALID,20.4392,VALID,129,VALID,0.662891,
2010-02-07, 01:53:04,VALID,918.462,VALID,0,VALID,95.8416,VALID,0.107441,VALID,20.4603,VALID,129,VALID,0.310547,
2010-02-07, 01:54:04,VALID,918.465,VALID,0,VALID,95.834,VALID,0.107441,VALID,20.4392,VALID,129,VALID,0.269922,
2010-02-07, 01:55:04,VALID,918.493,VALID,0,VALID,95.6815,VALID,0,VALID,20.4408,VALID,129,VALID,0,
2010-02-07, 01:56:04,VALID,918.514,VALID,0,VALID,95.4604,VALID,0,VALID,20.4213,VALID,129,VALID,0,
2010-02-07, 01:57:04,VALID,918.514,VALID,0,VALID,94.5761,VALID,0.107441,VALID,20.3238,VALID,129,VALID,0.0125,
2010-02-07, 01:58:04,VALID,918.503,VALID,0,VALID,93.5546,VALID,0.107441,VALID,20.2068,VALID,129,VALID,0.682813,
2010-02-07, 01:59:04,VALID,918.494,VALID,0,VALID,94.355,VALID,0.107441,VALID,20.1483,VALID,129,VALID,0.883594,
2010-02-07, 02:00:04,VALID,918.518,VALID,0,VALID,95.3842,VALID,0,VALID,20.1288,VALID,129,VALID,0.698828,
2010-02-07, 02:01:04,VALID,918.49,VALID,0,VALID,95.6434,VALID,0,VALID,20.0703,VALID,129,VALID,0.669531,
2010-02-07, 02:02:04,VALID,918.479,VALID,0,VALID,96.2685,VALID,0.107441,VALID,20.1483,VALID,129,VALID,0.733594,
2010-02-07, 02:03:04,VALID,918.463,VALID,0,VALID,96.5506,VALID,0.107441,VALID,20.2442,VALID,129,VALID,0.803125,
2010-02-07, 02:04:04,VALID,918.482,VALID,0,VALID,96.6878,VALID,0,VALID,20.3238,VALID,129,VALID,0.751953,
2010-02-07, 02:05:04,VALID,918.432,VALID,0,VALID,96.5887,VALID,0.107441,VALID,20.2832,VALID,129,VALID,0.655078,
2010-02-07, 02:06:04,VALID,918.475,VALID,0,VALID,96.5811,VALID,0.107441,VALID,20.3433,VALID,129,VALID,0.60625,
2010-02-07, 02:07:04,VALID,918.465,VALID,0,VALID,96.5201,VALID,0,VALID,20.3417,VALID,129,VALID,0.419531,
2010-02-07, 02:08:04,VALID,918.448,VALID,0,VALID,96.36,VALID,0.107441,VALID,20.3417,VALID,129,VALID,0.154297,
2010-02-07, 02:09:04,VALID,918.414,VALID,0,VALID,96.2685,VALID,0,VALID,20.3628,VALID,129,VALID,0.414453,
2010-02-07, 02:10:04,VALID,918.42,VALID,0,VALID,96.2609,VALID,0.107441,VALID,20.4213,VALID,129,VALID,0.450781,
2010-02-07, 02:11:04,VALID,918.443,VALID,0,VALID,96.1618,VALID,0.107441,VALID,20.4002,VALID,129,VALID,0.425,
2010-02-07, 02:12:04,VALID,918.41,VALID,0,VALID,96.0017,VALID,0,VALID,20.3823,VALID,129,VALID,0.492578,
2010-02-07, 02:13:04,VALID,918.392,VALID,0,VALID,96.0322,VALID,0.107441,VALID,20.4197,VALID,129,VALID,0.427734,
2010-02-07, 02:14:04,VALID,918.418,VALID,0,VALID,95.9483,VALID,0,VALID,20.4213,VALID,129,VALID,0.373047,
2010-02-07, 02:15:04,VALID,918.39,VALID,0,VALID,95.9254,VALID,0.107441,VALID,20.4603,VALID,129,VALID,0.4625,
2010-02-07, 02:16:04,VALID,918.403,VALID,0,VALID,95.9483,VALID,0,VALID,20.4408,VALID,129,VALID,0.527344,
2010-02-07, 02:17:04,VALID,918.383,VALID,0,VALID,96.0398,VALID,0,VALID,20.4798,VALID,129,VALID,0.614062,
2010-02-07, 02:18:04,VALID,918.331,VALID,0,VALID,95.895,VALID,0,VALID,20.4603,VALID,129,VALID,0.672656,
2010-02-07, 02:19:04,VALID,918.341,VALID,0,VALID,95.6129,VALID,0,VALID,20.4423,VALID,129,VALID,0.498437,
2010-02-07, 02:20:04,VALID,918.284,VALID,0,VALID,95.247,VALID,0,VALID,20.4228,VALID,129,VALID,0.335938,
2010-02-07, 02:21:04,VALID,918.281,VALID,0,VALID,95.1174,VALID,0,VALID,20.4033,VALID,129,VALID,0.108594,
2010-02-07, 02:22:04,VALID,918.284,VALID,0,VALID,94.9954,VALID,0,VALID,20.3838,VALID,129,VALID,0,
2010-02-07, 02:23:04,VALID,918.241,VALID,0,VALID,94.0653,VALID,0,VALID,20.2848,VALID,129,VALID,0.00507812,
2010-02-07, 02:24:04,VALID,918.244,VALID,0,VALID,94.7819,VALID,0,VALID,20.3448,VALID,129,VALID,0.395312,
2010-02-07, 02:25:04,VALID,918.218,VALID,0,VALID,95.4985,VALID,0,VALID,20.3838,VALID,129,VALID,0.357422,
2010-02-07, 02:26:04,VALID,918.176,VALID,0,VALID,95.7882,VALID,0,VALID,20.4423,VALID,129,VALID,0.551172,
2010-02-07, 02:27:04,VALID,918.18,VALID,0,VALID,95.7577,VALID,0,VALID,20.4813,VALID,129,VALID,0.422656,
2010-02-07, 02:28:04,VALID,918.186,VALID,0,VALID,95.6815,VALID,0,VALID,20.5204,VALID,129,VALID,0.730078,
2010-02-07, 02:29:04,VALID,918.139,VALID,0,VALID,95.651,VALID,0,VALID,20.5594,VALID,129,VALID,0.614453,
2010-02-07, 02:30:04,VALID,918.151,VALID,0,VALID,95.5443,VALID,0,VALID,20.5578,VALID,129,VALID,0.265234,
2010-02-07, 02:31:04,VALID,918.153,VALID,0,VALID,95.0411,VALID,0,VALID,20.4993,VALID,129,VALID,0,
2010-02-07, 02:32:04,VALID,918.119,VALID,0,VALID,94.6371,VALID,0,VALID,20.4603,VALID,129,VALID,0.503125,
2010-02-07, 02:33:04,VALID,918.132,VALID,0,VALID,95.064,VALID,0,VALID,20.4213,VALID,129,VALID,0.207031,
2010-02-07, 02:34:04,VALID,918.152,VALID,0,VALID,95.1631,VALID,0,VALID,20.3838,VALID,129,VALID,0.332031,
2010-02-07, 02:35:04,VALID,918.146,VALID,0,VALID,95.2088,VALID,0,VALID,20.3238,VALID,129,VALID,0.442969,
2010-02-07, 02:36:04,VALID,918.16,VALID,0,VALID,94.3474,VALID,0,VALID,20.1888,VALID,129,VALID,1.10352,
2010-02-07, 02:37:04,VALID,918.164,VALID,0,VALID,94.1187,VALID,0,VALID,20.0508,VALID,129,VALID,1.19648,
2010-02-07, 02:38:04,VALID,918.163,VALID,0,VALID,95.4223,VALID,0,VALID,20.0523,VALID,129,VALID,1.14805,
2010-02-07, 02:39:04,VALID,918.169,VALID,0,VALID,95.5976,VALID,0,VALID,19.9728,VALID,129,VALID,1.00352,
2010-02-07, 02:40:04,VALID,918.139,VALID,0,VALID,95.8187,VALID,0,VALID,19.9548,VALID,129,VALID,0.84375,
2010-02-07, 02:41:04,VALID,918.133,VALID,0,VALID,96.2533,VALID,0,VALID,19.9938,VALID,129,VALID,0.513281,
2010-02-07, 02:42:04,VALID,918.116,VALID,0,VALID,96.3447,VALID,0,VALID,19.9728,VALID,129,VALID,0.115625,
2010-02-07, 02:43:04,VALID,918.121,VALID,0,VALID,96.3219,VALID,0,VALID,19.9533,VALID,129,VALID,0.028125,
2010-02-07, 02:44:04,VALID,918.138,VALID,0,VALID,96.3752,VALID,0,VALID,19.9938,VALID,129,VALID,0,
2010-02-07, 02:45:04,VALID,918.147,VALID,0,VALID,96.4667,VALID,0,VALID,20.0118,VALID,129,VALID,0,
2010-02-07, 02:46:04,VALID,918.153,VALID,0,VALID,96.4133,VALID,0,VALID,19.9923,VALID,129,VALID,0,
2010-02-07, 02:47:04,VALID,918.151,VALID,0,VALID,96.2685,VALID,0,VALID,19.9728,VALID,129,VALID,0.439063,
2010-02-07, 02:48:04,VALID,918.163,VALID,0,VALID,96.4972,VALID,0,VALID,19.9923,VALID,129,VALID,0.567187,
2010-02-07, 02:49:04,VALID,918.183,VALID,0,VALID,96.6344,VALID,0,VALID,20.0313,VALID,129,VALID,0.594531,
2010-02-07, 02:50:04,VALID,918.159,VALID,0,VALID,96.7945,VALID,0,VALID,20.0703,VALID,129,VALID,0.632031,
2010-02-07, 02:51:04,VALID,918.176,VALID,0,VALID,96.8936,VALID,0,VALID,20.1093,VALID,129,VALID,0.537109,
2010-02-07, 02:52:04,VALID,918.174,VALID,0,VALID,96.9089,VALID,0,VALID,20.1288,VALID,129,VALID,0.375391,
2010-02-07, 02:53:04,VALID,918.164,VALID,0,VALID,96.9089,VALID,0,VALID,20.1093,VALID,129,VALID,0.180078,
2010-02-07, 02:54:04,VALID,918.151,VALID,0,VALID,96.9546,VALID,0,VALID,20.1303,VALID,129,VALID,0.275,
2010-02-07, 02:55:04,VALID,918.183,VALID,0,VALID,96.9241,VALID,0,VALID,20.1108,VALID,129,VALID,0.385547,
2010-02-07, 02:56:04,VALID,918.141,VALID,0,VALID,96.886,VALID,0,VALID,20.0703,VALID,129,VALID,0.512891,
2010-02-07, 02:57:04,VALID,918.151,VALID,0,VALID,96.8326,VALID,0,VALID,20.0313,VALID,129,VALID,0.517578,
2010-02-07, 02:58:04,VALID,918.123,VALID,0,VALID,96.8631,VALID,0,VALID,20.0313,VALID,129,VALID,0.329297,
2010-02-07, 02:59:04,VALID,918.101,VALID,0,VALID,96.8631,VALID,0,VALID,20.0508,VALID,129,VALID,0.183984,
2010-02-07, 03:00:04,VALID,918.083,VALID,0,VALID,96.8403,VALID,0,VALID,20.0703,VALID,129,VALID,0,
2010-02-07, 03:01:04,VALID,918.09,VALID,0,VALID,96.8479,VALID,0,VALID,20.0703,VALID,129,VALID,0,
2010-02-07, 03:02:04,VALID,918.108,VALID,0,VALID,96.825,VALID,0,VALID,20.0898,VALID,129,VALID,0,
2010-02-07, 03:03:04,VALID,918.084,VALID,0,VALID,96.8021,VALID,0,VALID,20.0898,VALID,129,VALID,0,
2010-02-07, 03:04:04,VALID,918.11,VALID,0,VALID,96.5124,VALID,0,VALID,20.0313,VALID,129,VALID,0.096875,
2010-02-07, 03:05:04,VALID,918.087,VALID,0,VALID,96.3524,VALID,0,VALID,20.0133,VALID,129,VALID,0.553906,
2010-02-07, 03:06:04,VALID,918.094,VALID,0,VALID,96.3829,VALID,0,VALID,20.0118,VALID,129,VALID,0.44375,
2010-02-07, 03:07:04,VALID,918.104,VALID,0,VALID,96.36,VALID,0,VALID,19.9923,VALID,129,VALID,0.294922,
2010-02-07, 03:08:04,VALID,918.087,VALID,0,VALID,96.4133,VALID,0,VALID,19.9728,VALID,129,VALID,0.165234,
2010-02-07, 03:09:04,VALID,918.081,VALID,0,VALID,96.5277,VALID,0,VALID,20.0118,VALID,129,VALID,0,
2010-02-07, 03:10:04,VALID,918.052,VALID,0,VALID,96.6497,VALID,0,VALID,20.0508,VALID,129,VALID,0,
2010-02-07, 03:11:04,VALID,918.035,VALID,0,VALID,96.8021,VALID,0,VALID,20.0898,VALID,129,VALID,0,
2010-02-07, 03:12:04,VALID,918.051,VALID,0,VALID,96.9089,VALID,0,VALID,20.1678,VALID,129,VALID,0,
2010-02-07, 03:13:04,VALID,918.009,VALID,0,VALID,96.947,VALID,0,VALID,20.2068,VALID,129,VALID,0,
2010-02-07, 03:14:04,VALID,918.011,VALID,0,VALID,96.886,VALID,0,VALID,20.1873,VALID,129,VALID,0,
2010-02-07, 03:15:04,VALID,917.971,VALID,0,VALID,96.8174,VALID,0,VALID,20.1678,VALID,129,VALID,0,
2010-02-07, 03:16:04,VALID,917.98,VALID,0,VALID,96.6802,VALID,0,VALID,20.1483,VALID,129,VALID,0,
2010-02-07, 03:17:04,VALID,917.971,VALID,0,VALID,96.764,VALID,0,VALID,20.1873,VALID,129,VALID,0.13125,
2010-02-07, 03:18:04,VALID,917.971,VALID,0,VALID,96.7488,VALID,0,VALID,20.2068,VALID,129,VALID,0.0714844,
2010-02-07, 03:19:04,VALID,917.974,VALID,0,VALID,96.7488,VALID,0,VALID,20.2263,VALID,129,VALID,0,
2010-02-07, 03:20:04,VALID,917.955,VALID,0,VALID,96.7716,VALID,0,VALID,20.2458,VALID,129,VALID,0,
2010-02-07, 03:21:04,VALID,917.936,VALID,0,VALID,96.6573,VALID,0,VALID,20.2263,VALID,129,VALID,0,
2010-02-07, 03:22:04,VALID,917.9,VALID,0,VALID,96.7793,VALID,0,VALID,20.2848,VALID,129,VALID,0.343359,
2010-02-07, 03:23:04,VALID,917.908,VALID,0,VALID,96.8174,VALID,0,VALID,20.3643,VALID,129,VALID,0.564453,
2010-02-07, 03:24:04,VALID,917.892,VALID,0,VALID,96.8021,VALID,0,VALID,20.3823,VALID,129,VALID,0.274609,
2010-02-07, 03:25:04,VALID,917.855,VALID,0,VALID,96.7335,VALID,0,VALID,20.4018,VALID,129,VALID,0.373047,
2010-02-07, 03:26:04,VALID,917.886,VALID,0,VALID,96.6878,VALID,0,VALID,20.4018,VALID,129,VALID,0.282422,
2010-02-07, 03:27:04,VALID,917.897,VALID,0,VALID,96.6954,VALID,0,VALID,20.4213,VALID,129,VALID,0.235938,
2010-02-07, 03:28:04,VALID,917.893,VALID,0,VALID,96.6497,VALID,0,VALID,20.4018,VALID,129,VALID,0.185937,
2010-02-07, 03:29:04,VALID,917.925,VALID,0,VALID,96.6573,VALID,0,VALID,20.4213,VALID,129,VALID,0,
2010-02-07, 03:30:04,VALID,917.934,VALID,0,VALID,96.6192,VALID,0,VALID,20.4213,VALID,129,VALID,0,
2010-02-07, 03:31:04,VALID,917.911,VALID,0,VALID,96.5811,VALID,0,VALID,20.4423,VALID,129,VALID,0,
2010-02-07, 03:32:04,VALID,917.898,VALID,0,VALID,96.4286,VALID,0,VALID,20.4018,VALID,129,VALID,0,
2010-02-07, 03:33:04,VALID,917.908,VALID,0,VALID,96.1999,VALID,0,VALID,20.3433,VALID,129,VALID,0,
2010-02-07, 03:34:04,VALID,917.892,VALID,0,VALID,96.0703,VALID,0.107441,VALID,20.3433,VALID,129,VALID,0,
2010-02-07, 03:35:04,VALID,917.858,VALID,0,VALID,95.8645,VALID,0,VALID,20.3043,VALID,129,VALID,0,
2010-02-07, 03:36:04,VALID,917.858,VALID,0,VALID,95.9788,VALID,0.107441,VALID,20.3043,VALID,129,VALID,0,
2010-02-07, 03:37:04,VALID,917.85,VALID,0,VALID,96.0855,VALID,0,VALID,20.3043,VALID,129,VALID,0,
2010-02-07, 03:38:04,VALID,917.815,VALID,0,VALID,96.2228,VALID,0,VALID,20.2848,VALID,129,VALID,0,
2010-02-07, 03:39:04,VALID,917.838,VALID,0,VALID,96.2228,VALID,0,VALID,20.2848,VALID,129,VALID,0,
2010-02-07, 03:40:04,VALID,917.847,VALID,0,VALID,96.1923,VALID,0,VALID,20.2668,VALID,129,VALID,0,
2010-02-07, 03:41:04,VALID,917.861,VALID,0,VALID,96.2456,VALID,0,VALID,20.2263,VALID,129,VALID,0,
2010-02-07, 03:42:04,VALID,917.853,VALID,0,VALID,96.1923,VALID,0,VALID,20.1693,VALID,129,VALID,0.548828,
2010-02-07, 03:43:04,VALID,917.834,VALID,0,VALID,96.4515,VALID,0,VALID,20.1678,VALID,129,VALID,0.419141,
2010-02-07, 03:44:04,VALID,917.812,VALID,0,VALID,96.6268,VALID,0,VALID,20.2278,VALID,129,VALID,0.261719,
2010-02-07, 03:45:04,VALID,917.786,VALID,0,VALID,96.7259,VALID,0,VALID,20.2263,VALID,129,VALID,0.209375,